This is the latest recevied weather packets stored in our database for station/object IN3MWE-10. If no packets are shown the sender has not sent any weather packets the latest 10 day(s).
| Time | Temp. | Humidity | Pressure | Rain* | Wind** | Luminosity | Snow |
|---|---|---|---|---|---|---|---|
| 1777317622 | 20° C | 42% | 979.1 hPa | - | - | - | - |
| 1777316722 | 20° C | 44% | 978.9 hPa | - | - | - | - |
| 1777315822 | 21.67° C | 39% | 978.6 hPa | - | - | - | - |
| 1777314922 | 21.67° C | 38% | 978.4 hPa | - | - | - | - |
| 1777314022 | 21.67° C | 38% | 978.1 hPa | - | - | - | - |
| 1777313121 | 21.67° C | 37% | 977.8 hPa | - | - | - | - |
| 1777312221 | 22.22° C | 37% | 977.6 hPa | - | - | - | - |
| 1777311321 | 22.78° C | 35% | 977.3 hPa | - | - | - | - |
| 1777310421 | 22.78° C | 35% | 977.2 hPa | - | - | - | - |
| 1777309521 | 23.33° C | 34% | 977 hPa | - | - | - | - |
| 1777308621 | 23.89° C | 33% | 976.9 hPa | - | - | - | - |
| 1777307720 | 23.89° C | 33% | 977 hPa | - | - | - | - |
| 1777306820 | 25° C | 31% | 977 hPa | - | - | - | - |
| 1777305920 | 26.11° C | 29% | 976.7 hPa | - | - | - | - |
| 1777305020 | 26.11° C | 29% | 976.8 hPa | - | - | - | - |
| 1777304120 | 27.78° C | 26% | 976.8 hPa | - | - | - | - |
| 1777303220 | 27.78° C | 26% | 976.7 hPa | - | - | - | - |
| 1777302320 | 27.78° C | 26% | 976.8 hPa | - | - | - | - |
| 1777301420 | 28.89° C | 24% | 976.7 hPa | - | - | - | - |
| 1777300520 | 30° C | 22% | 977 hPa | - | - | - | - |
| 1777299619 | 30° C | 21% | 977 hPa | - | - | - | - |
| 1777298719 | 31.11° C | 21% | 976.9 hPa | - | - | - | - |
| 1777297819 | 30.56° C | 22% | 977.3 hPa | - | - | - | - |
| 1777296919 | 27.22° C | 26% | 977.4 hPa | - | - | - | - |
| 1777296019 | 28.33° C | 23% | 977.5 hPa | - | - | - | - |
* Rain since midnight (hover to see other rain measurements)
** Current wind speed in m/s (hover to see current wind gust speed)